#timestamp,LO_Frequency,Hit,StdDev 
1621389615.7,286047002.3,N
1621389635.6,286046998.1,N
1621389655.4,286047002.7,N
1621389675.2,286047000.2,N
1621389695.1,286047001.1,N
1621389696.0,286047001.1,N
1621389715.8,286047002.5,N
1621389735.7,286047003.8,N
1621389755.5,286047000.2,N
1621389775.3,286047001.2,N
1621389795.2,286047002.5,N
1621389815.0,286047001.4,N
1621389815.9,286047001.4,N
1621389835.8,286046998.1,N
1621389855.6,286046999.3,N
1621389875.4,286046999.2,N
1621389895.3,286046999.3,N
1621389915.1,286046998.3,N
1621389935.8,286046999.2,N
1621389955.7,286046999.6,N
1621389975.5,286046995.4,N
1621389995.4,286046995.8,N
1621390015.2,286046995.2,N
1621390035.0,286046996.4,N
1621390035.9,286046996.4,N
1621390055.8,286046997.8,N
1621390075.6,286046996.6,N
1621390095.4,286046998.5,N
1621390115.3,286047002.0,N
1621390135.1,286047004.2,N
1621390155.9,286047004.4,N
1621390175.7,286047002.9,N
1621390195.5,286047004.3,N
1621390215.8,286047004.1,N
1621390235.6,286047002.0,N
1621390255.5,286047000.5,N
1621390275.3,286047001.6,N
1621390295.2,286047001.6,N
1621390315.9,286047002.8,N
1621390335.7,286046998.2,N
1621390355.6,286046998.8,N
1621390375.4,286047000.6,N
1621390395.2,286047002.3,N
1621390415.1,286047001.5,N
1621390416.0,286047001.5,N
1621390435.8,286046999.7,N
1621390455.7,286046999.6,N
1621390475.5,286046997.1,N
1621390495.3,286046998.1,N
1621390515.2,286047001.3,N
1621390535.9,286047005.8,N
1621390555.7,286047001.9,N
1621390575.6,286046998.3,N
1621390595.4,286047000.7,N
1621390615.3,286046999.2,N
1621390635.1,286046998.5,N
1621390636.0,286046998.5,N
1621390655.8,286047000.0,N
1621390675.7,286047004.1,N
1621390695.5,286047002.5,N
1621390715.3,286047001.9,N
1621390735.2,286047000.0,N
1621390755.0,286046998.2,N
1621390755.9,286046998.2,N
1621390775.8,286046998.7,N
1621390795.6,286047000.1,N
1621390815.4,286046998.6,N
1621390835.3,286046998.7,N
1621390855.1,286047002.0,N
1621390875.8,286047001.4,N
1621390895.7,286046999.8,N
1621390915.5,286047002.6,N
1621390935.4,286047003.5,N
1621390955.2,286047003.6,N
1621390975.0,286046999.8,N
1621390975.9,286046999.8,N
1621390995.8,286047002.9,N
1621391015.6,286047005.5,N
1621391035.4,286047003.3,N
1621391055.3,286047003.1,N
1621391075.1,286047002.0,N
1621391095.9,286047000.1,N
1621391115.7,286047000.0,N
1621391135.5,286047000.1,N
1621391155.4,286046999.6,N
1621391175.2,286046999.3,N
1621391195.1,286047000.0,N
1621391196.0,286047000.0,N
1621391215.8,286047000.1,N
1621391235.6,286047001.3,N
1621391255.5,286047003.2,N
1621391275.3,286047001.4,N
1621391295.1,286047001.8,N
1621391315.9,286047001.8,N
1621391335.7,286047000.1,N
1621391355.6,286046998.8,N
1621391375.4,286047000.7,N
1621391395.2,286047001.5,N
1621391415.1,286047004.4,N
1621391416.0,286047004.4,N
1621391435.8,286047005.9,Y
1621391455.7,286047001.8,P
1621391475.5,286047000.2,N
1621391495.3,286046998.5,N
1621391515.2,286046999.0,N
1621391535.9,286046997.5,N
1621391555.7,286046997.9,N
1621391575.6,286046997.6,N
1621391595.4,286046996.2,N
1621391615.2,286046997.2,N
1621391635.1,286046999.3,N
1621391636.0,286046999.3,N
1621391655.8,286046999.5,N
1621391675.7,286047000.9,N
1621391695.5,286046999.9,N
1621391715.3,286047000.9,N
1621391735.2,286046998.4,N
1621391755.0,286046997.3,N
1621391755.9,286046997.3,N
1621391775.7,286046997.7,N
1621391795.6,286046995.5,N
1621391815.4,286046995.7,N
1621391835.3,286046997.0,N
1621391855.1,286046997.3,N
1621391856.0,286046997.3,N
1621391875.8,286046997.7,N
1621391895.7,286046996.9,N
1621391915.5,286046997.0,N
1621391935.3,286046998.5,N
1621391955.2,286047001.1,N
1621391975.0,286046998.4,N
1621391975.9,286046998.4,N
1621391995.8,286046998.2,N
1621392015.6,286047002.7,N
1621392035.4,286046998.3,N
1621392055.3,286046997.1,N
1621392075.1,286046999.0,N
1621392095.8,286046998.4,N
1621392115.7,286046998.6,N
1621392135.5,286046999.3,N
1621392155.4,286046997.2,N
1621392175.2,286047000.2,N
1621392195.0,286047001.8,N
1621392195.9,286047001.8,N
1621392215.8,286047002.2,N
1621392235.6,286047001.6,N
1621392255.5,286046999.9,N
1621392275.3,286047002.4,N
1621392295.1,286047002.3,N
1621392315.9,286047000.2,N
1621392335.7,286047000.1,N
1621392355.5,286047001.0,N
1621392375.4,286046999.0,N
1621392395.2,286046997.5,N
1621392415.0,286046997.2,N
1621392416.0,286046997.2,N
1621392435.8,286046999.4,N
1621392455.6,286046998.8,N
1621392475.5,286046998.6,N
1621392495.3,286046998.9,N
1621392515.1,286046999.2,N
1621392535.9,286046997.7,N
1621392555.7,286046995.2,N
1621392575.6,286046996.6,N
1621392595.4,286046999.4,N
1621392615.2,286046997.4,N
1621392635.1,286046995.1,N
1621392636.0,286046995.1,N
1621392655.8,286046995.8,N
1621392675.7,286046995.2,N
1621392695.5,286046997.1,N
1621392715.3,286046998.9,N
1621392735.2,286046997.9,N
1621392755.0,286046995.9,N
1621392755.9,286046995.9,N
1621392775.7,286046995.7,N
1621392795.6,286046993.3,Y
1621392815.4,286046998.0,P
1621392835.3,286046996.1,P
1621392855.1,286046997.4,N
1621392856.0,286046997.4,Y
1621392875.8,286047000.7,P
1621392895.7,286047001.9,N
1621392915.5,286047000.2,N
1621392935.4,286047002.1,N
1621392955.2,286047003.4,N
1621392975.0,286047005.9,Y
1621392975.9,286047005.9,P
1621392995.8,286047005.6,N
1621393015.6,286047007.3,P
1621393035.4,286047003.5,N
1621393055.3,286047003.6,N
1621393075.1,286047002.0,N
1621393095.9,286047000.8,N
1621393115.7,286046998.6,N
1621393135.5,286047001.0,N
1621393155.4,286047000.8,N
1621393175.2,286047001.1,N
1621393195.0,286047000.1,N
1621393195.9,286047000.1,N
